User: anonymous   Login
Location: *
(37.5724°S, 58.0067°E)
Time: 04:29:02
(UTC+00:00)
Language:

CZ-4C R/B - Orbit

View from above orbital plane
View from above orbital plane
View from above satellite
View from above satellite

Ground track
Ground track

The orbit data is extracted from the following two-line orbital elements,

1 36416U 10009D   20337.78649137 -.00000075  00000-0  16253-4 0  9994
2 36416  63.4221 108.3551 0511447 355.3991   4.2437 13.69579559537565
Epoch (UTC): 02 December 2020 18:52:32
Eccentricity: 0.0511447
inclination: 63.4221°
perigee height: 623 km
apogee height: 1378 km
right ascension of ascending node: 108.3551°
argument of perigee: 355.3991°
revolutions per day: 13.69579559
mean anomaly at epoch: 4.2437°
orbit number at epoch: 53756

The dashed part of the orbit path shows where the satellite is in the earth's shadow,  

DLR